Weather History for Park Rapids, MN

Change the Weather History Date:

Thursday, November 1, 2012

  Actual Average Record
Temperature  
Mean Temperature 34 °F -  
Max Temperature 39 °F 45 °F 69 °F (1950)
Min Temperature 28 °F 28 °F 0 °F (1951)
Degree Days  
Heating Degree Days 32    
Moisture  
Dew Point 23 °F    
Average Humidity 68    
Maximum Humidity 87    
Minimum Humidity 56    
Precipitation  
Precipitation 0.00 in - - ()
Sea Level Pressure  
Sea Level Pressure 30.07 in    
Wind  
Wind Speed 12 mph (North)    
Max Wind Speed 18 mph    
Max Gust Speed 26 mph    
Visibility 10 miles    
Events      
Averages and records for this station are not official NWS values.
T = Trace of Precipitation, MM = Missing Value Source: NWS Daily Summary

Daily Weather History Graph

Daily Weather History Graph

Search for Another Location

Airport:

Trip Planner

Search our weather history database for the weather conditions in past years. The results will help you decide how hot, cold, wet, or windy it might be!

Date:

Astronomy

Nov. 01, 2012 Rise Set
Actual Time 8:03 AM CDT 6:03 PM CDT
Civil Twilight 7:31 AM CDT 6:35 PM CDT
Nautical Twilight 6:55 AM CDT 7:11 PM CDT
Astronomical Twilight 6:20 AM CDT 7:46 PM CDT
Moon 7:53 PM CDT (11/1) 10:45 AM CDT (11/1)
Length of Visible Light 11h 03m
Length of Day
9h 59m
Waning Gibbous, 93% of the Moon is Illuminated
Nov 1
Waning Gibbous
Nov 6
Last Quarter
Nov 13
New
Nov 20
First Quarter
Nov 28
Full

Hourly Weather History & Observations

Time (CDT) Temp. Windchill Dew Point Humidity Pressure Visibility Wind Dir Wind Speed Gust Speed Precip Events Conditions
12:53 AM 39.9 °F 32.5 °F 33.1 °F 77% 30.00 in 10.0 mi NNW 12.7 mph - N/A   Overcast
1:24 AM 39.2 °F 32.5 °F 33.8 °F 81% 29.98 in 10.0 mi NNW 10.4 mph - N/A   Overcast
1:53 AM 37.9 °F 28.9 °F 33.1 °F 83% 30.02 in 10.0 mi NNW 16.1 mph 21.9 mph N/A   Overcast
2:53 AM 37.9 °F 30.9 °F 33.1 °F 83% 30.02 in 10.0 mi NNW 10.4 mph - N/A   Overcast
3:02 AM 37.4 °F 29.3 °F 33.8 °F 87% 29.98 in 10.0 mi NNW 12.7 mph - N/A   Overcast
3:53 AM 37.0 °F 29.8 °F 28.9 °F 73% 30.02 in 10.0 mi NNW 10.4 mph 18.4 mph N/A   Overcast
4:53 AM 36.0 °F 28.0 °F 26.1 °F 67% 30.03 in 10.0 mi NNW 11.5 mph 21.9 mph N/A   Overcast
5:53 AM 34.0 °F 23.8 °F 25.0 °F 70% 30.06 in 10.0 mi NNW 16.1 mph 24.2 mph N/A   Overcast
6:53 AM 32.0 °F 20.5 °F 21.2 °F 64% 30.03 in 10.0 mi NNW 18.4 mph 26.5 mph N/A   Overcast
7:53 AM 32.0 °F 24.2 °F 23.0 °F 69% 30.08 in 10.0 mi NNW 9.2 mph - N/A   Overcast
8:53 AM 30.0 °F 19.1 °F 21.0 °F 69% 30.09 in 10.0 mi NNW 15.0 mph 23.0 mph N/A   Overcast
9:53 AM 30.9 °F 19.8 °F 19.9 °F 64% 30.10 in 10.0 mi NNW 16.1 mph 20.7 mph N/A   Overcast
10:53 AM 30.9 °F 20.7 °F 21.0 °F 67% 30.10 in 10.0 mi NNW 13.8 mph 19.6 mph N/A   Overcast
11:53 AM 30.9 °F 20.2 °F 19.9 °F 64% 30.11 in 10.0 mi NNW 15.0 mph 21.9 mph N/A   Overcast
12:53 PM 32.0 °F 22.5 °F 19.9 °F 61% 30.11 in 10.0 mi North 12.7 mph 19.6 mph N/A   Mostly Cloudy
1:46 PM 30.2 °F 20.2 °F 19.4 °F 64% 30.04 in 10.0 mi North 12.7 mph - N/A   Scattered Clouds
1:53 PM 32.0 °F 24.2 °F 19.9 °F 61% 30.09 in 10.0 mi North 9.2 mph - N/A   Mostly Cloudy
2:53 PM 35.1 °F 25.5 °F 21.0 °F 57% 30.08 in 10.0 mi NW 15.0 mph 20.7 mph N/A   Mostly Cloudy
3:13 PM 30.2 °F 21.9 °F 19.4 °F 64% 30.03 in 10.0 mi North 9.2 mph - N/A   Scattered Clouds
3:32 PM 33.8 °F 25.3 °F 19.4 °F 56% 30.03 in 10.0 mi North 11.5 mph 21.9 mph N/A   Mostly Cloudy
3:53 PM 33.1 °F 26.9 °F 19.9 °F 59% 30.09 in 10.0 mi Variable 6.9 mph - N/A   Mostly Cloudy
4:32 PM 32.0 °F 23.6 °F 19.4 °F 60% 30.05 in 10.0 mi North 10.4 mph - N/A   Scattered Clouds
4:51 PM 32.0 °F 23.6 °F 19.4 °F 60% 30.05 in 10.0 mi NNW 10.4 mph - N/A   Mostly Cloudy
4:53 PM 32.0 °F 24.8 °F 19.0 °F 59% 30.11 in 10.0 mi North 8.1 mph - N/A   Mostly Cloudy
5:53 PM 30.9 °F 21.7 °F 19.0 °F 61% 30.10 in 10.0 mi NNE 11.5 mph 20.7 mph N/A   Overcast
6:53 PM 30.9 °F 24.3 °F 19.0 °F 61% 30.11 in 10.0 mi North 6.9 mph - N/A   Mostly Cloudy
7:53 PM 30.0 °F 23.2 °F 19.9 °F 66% 30.12 in 10.0 mi NNE 6.9 mph - N/A   Overcast
8:53 PM 28.9 °F 23.9 °F 19.9 °F 69% 30.13 in 10.0 mi NE 4.6 mph - N/A   Mostly Cloudy
9:53 PM 28.9 °F 22.8 °F 21.0 °F 72% 30.13 in 10.0 mi North 5.8 mph - N/A   Overcast
10:53 PM 28.0 °F 20.0 °F 21.0 °F 75% 30.13 in 10.0 mi NNE 8.1 mph - N/A   Overcast
11:51 PM 28.4 °F 18.5 °F 21.2 °F 74% 30.06 in 10.0 mi NE 11.5 mph - N/A   Overcast
11:53 PM 28.0 °F 18.6 °F 21.9 °F 78% 30.12 in 10.0 mi NE 10.4 mph - N/A   Overcast